[[{"header":{"parameterUnit":"m.s-1","parameterCategory":1,"la1":30.2991,"la2":30.254,"lo1":-89.0895,"lo2":-89.0444,"dy":0.0017,"dx":0.0017,"nx":28,"ny":28,"refTime":"2024-02-14T03:00:00:Z","depth":0,"parameterNumber":2,"parameterNumberName":"U-component_of_WINDS"},"data":[0,0,0,0,0,0,0,0,0,0,0,0,0,0,0,0,0,0,0,0,0,0,0,0,0,0,0,0,0,0,0,0,0,0,0,0,0,0,0,0,0,0,0,0,0,0,0,0,0,0,0,0,0,0,0,0,0,0,-0.6125,-0.6125,0,-0.6134,-0.6134,-0.6134,-0.6101,-0.61,-0.6099,-0.6098,-0.6109,-0.611,-0.6111,0,0,0,0,0,0,0,0,0,0,0,0,0,-0.6079,-0.6081,-0.6125,-0.6125,-0.6125,-0.6134,-0.6134,-0.6134,-0.6101,-0.61,-0.6099,-0.6098,-0.6109,-0.611,-0.6112,0,0,0,0,0,0,0,0,0,0,0,0,0,-0.6095,-0.6081,-0.6125,-0.611,-0.6109,-0.6134,-0.6134,-0.6134,-0.6102,-0.61,-0.6099,-0.6097,-0.6108,-0.611,-0.6112,-0.6153,0,0,-0.6117,-0.6118,0,0,0,0,0,0,0,0,-0.6094,-0.6097,-0.6112,-0.6111,-0.611,-0.6115,-0.6122,-0.6141,-0.6102,-0.6104,-0.6098,-0.6097,-0.6112,-0.6114,-0.6119,-0.6153,-0.6154,-0.6117,-0.6119,-0.6119,-0.612,0,0,0,0,0,0,0,-0.6093,-0.6096,-0.6129,-0.6112,-0.6111,-0.6103,-0.6103,-0.6125,-0.6117,-0.6104,-0.6102,-0.6103,-0.6111,-0.6117,-0.6119,-0.6154,-0.6117,-0.6119,-0.612,-0.6121,-0.622,-0.6221,0,0,0,0,0,0,-0.6094,-0.6096,-0.6128,-0.6129,-0.6098,-0.6105,-0.6105,-0.6115,-0.6116,-0.6115,-0.6104,-0.6102,-0.6115,-0.6117,-0.6119,-0.6165,-0.6119,-0.6121,-0.6122,-0.6218,-0.622,-0.6222,0,0,0,0,0,0,-0.6093,-0.6097,-0.6128,-0.6112,-0.6115,-0.6107,-0.6118,-0.6116,-0.6121,-0.6116,-0.6115,-0.6112,-0.6114,-0.6116,-0.6144,-0.6165,-0.6122,-0.6123,-0.6217,-0.6219,-0.6221,-0.626,0,0,0,0,0,0,-0.6092,-0.6097,-0.6113,-0.6112,-0.6116,-0.6153,-0.6119,-0.6117,-0.6124,-0.6121,-0.6123,-0.6122,-0.6113,-0.6141,-0.6146,-0.6167,-0.6125,-0.6215,-0.6218,-0.622,-0.6256,-0.6263,-0.6269,0,0,0,0,0,-0.609,-0.6124,-0.6114,-0.6118,-0.6135,-0.6154,-0.6156,-0.6145,-0.6126,-0.6142,-0.6138,-0.6122,-0.6162,-0.6144,-0.6149,-0.6171,-0.6213,-0.6217,-0.622,-0.6254,-0.6262,-0.6269,0,0,0,0,0,0,-0.6128,-0.6124,-0.6112,-0.6147,-0.6151,-0.6149,-0.6168,-0.6154,-0.6164,-0.616,-0.6146,-0.6146,-0.6176,-0.6177,-0.6157,-0.621,-0.6185,-0.6189,-0.6209,-0.6216,-0.6222,-0.6221,-0.6126,0,0,0,0,0,-0.6141,-0.6156,-0.6151,-0.6182,-0.6185,-0.6176,-0.6184,-0.6174,-0.6178,-0.618,-0.6179,-0.6184,-0.6197,-0.6207,-0.6219,-0.6256,-0.6256,-0.6274,-0.628,-0.6285,-0.6289,-0.6307,-0.6314,-0.6233,-0.6233,-0.6233,0,0,-0.6166,-0.6166,-0.6177,-0.619,-0.6192,-0.6208,-0.6178,-0.6197,-0.6209,-0.6183,-0.6209,-0.6208,-0.6212,-0.6244,-0.6258,-0.6246,-0.6311,-0.6289,-0.6293,-0.6295,-0.6311,-0.6319,-0.6326,-0.6236,-0.6235,-0.6235,0,0,-0.6221,-0.6223,-0.6247,-0.625,-0.6253,-0.6247,-0.6253,-0.6252,-0.625,-0.6275,-0.6256,-0.627,-0.6294,-0.6298,-0.6303,-0.6357,-0.6341,-0.6361,-0.6393,-0.6411,-0.6417,-0.6423,-0.6441,-0.6447,-0.6365,-0.6365,-0.6365,0,-0.6253,-0.6276,-0.6262,-0.6282,-0.6288,-0.6264,-0.6289,-0.6292,-0.63,-0.6304,-0.629,-0.6318,-0.632,-0.6351,-0.6364,-0.637,-0.6375,-0.6361,-0.6417,-0.6423,-0.6428,-0.6445,-0.6452,-0.6368,-0.6367,-0.6367,-0.6367,0,-0.6314,-0.6331,-0.6351,-0.6357,-0.6365,-0.6387,-0.6376,-0.6386,-0.6376,-0.6371,-0.6395,-0.6396,-0.6407,-0.6414,-0.6405,-0.6444,-0.6436,-0.642,-0.6394,-0.6438,-0.6454,-0.646,-0.6371,-0.637,-0.6369,-0.6369,0,0,-0.6394,-0.6391,-0.6399,-0.64,-0.6401,-0.6414,-0.6435,-0.6445,-0.6453,-0.6459,-0.6475,-0.6495,-0.6479,-0.6485,-0.6475,-0.6491,-0.6532,-0.6473,-0.6472,-0.6483,-0.6574,-0.6585,-0.6593,-0.6522,-0.6523,-0.6524,-0.6573,0,-0.6447,-0.6482,-0.6469,-0.6504,-0.6518,-0.6496,-0.6513,-0.6516,-0.6511,-0.6523,-0.6518,-0.6532,-0.6511,-0.6514,-0.6528,-0.6524,-0.655,-0.652,-0.6537,-0.6537,-0.6535,-0.6602,-0.6614,-0.666,-0.6579,-0.658,-0.6581,0,-0.6514,-0.652,-0.6557,-0.6553,-0.6559,-0.6575,-0.6582,-0.6594,-0.6596,-0.6591,-0.6597,-0.6583,-0.6603,-0.6577,-0.6603,-0.6583,-0.6589,-0.6588,-0.6589,-0.659,-0.6561,-0.6603,-0.6675,-0.6682,-0.6591,-0.659,-0.6589,0,-0.6566,-0.6585,-0.6608,-0.6611,-0.6608,-0.662,-0.6619,-0.662,-0.6626,-0.6632,-0.6636,-0.6645,-0.665,-0.6658,-0.6647,-0.6629,-0.6674,-0.6648,-0.667,-0.667,-0.668,-0.668,-0.6753,-0.6686,-0.6686,-0.6686,-0.6685,0,-0.6626,-0.6649,-0.6632,-0.6646,-0.6671,-0.6656,-0.668,-0.6678,-0.6678,-0.6691,-0.6672,-0.6685,-0.667,-0.6682,-0.6674,-0.6696,-0.6698,-0.6695,-0.6692,-0.6696,-0.6696,-0.6699,-0.6695,-0.6687,-0.6687,-0.6687,-0.6686,0,-0.6689,-0.6679,-0.6703,-0.6698,-0.6697,-0.6715,-0.671,-0.6723,-0.6717,-0.6734,-0.6737,-0.6727,-0.674,-0.6729,-0.6742,-0.6736,-0.6765,-0.6758,-0.6764,-0.6762,-0.6784,-0.6782,-0.6862,-0.6871,-0.6798,-0.6799,-0.68,0,-0.6728,-0.6745,-0.674,-0.6747,-0.6748,-0.676,-0.6765,-0.6751,-0.6758,-0.676,-0.6773,-0.6783,-0.6791,-0.6811,-0.6805,-0.6814,-0.6807,-0.6834,-0.6808,-0.6811,-0.6806,-0.6804,-0.6805,-0.6839,-0.684,-0.6841,-0.6841,0,-0.6797,-0.679,-0.6799,-0.6805,-0.6812,-0.6817,-0.682,-0.6827,-0.6812,-0.6821,-0.6832,-0.6838,-0.685,-0.686,-0.6867,-0.6866,-0.6851,-0.685,-0.6855,-0.6859,-0.6861,-0.6858,-0.6777,-0.6848,-0.6847,-0.6847,-0.6846,-0.6846,-0.6848,-0.6861,-0.6859,-0.6869,-0.687,-0.6873,-0.6884,-0.6878,-0.6888,-0.6895,-0.6886,-0.69,-0.69,-0.6908,-0.6909,-0.6919,-0.6908,-0.6916,-0.6918,-0.692,-0.6922,-0.686,-0.6921,-0.692,-0.692,-0.692,-0.692,0,-0.6914,-0.6912,-0.6921,-0.6925,-0.6933,-0.6917,-0.6919,-0.6927,-0.6939,-0.694,-0.6947,-0.696,-0.6969,-0.6964,-0.6972,-0.6981,-0.6974,-0.6984,-0.6982,-0.6982,-0.6933,-0.6927,-0.6989,-0.6989,-0.6989,-0.6989,-0.6989,-0.6989,-0.695,-0.697,-0.6963,-0.6984,-0.6981,-0.6994,-0.6996,-0.6999,-0.6999,-0.7014,-0.7021,-0.7017,-0.7015,-0.7022,-0.703,-0.7028,-0.7031,-0.7043,-0.7039,-0.6993,-0.6986,-0.6979,-0.6973,-0.7044,-0.7044,-0.7086,-0.7087,-0.7087]},{"header":{"parameterUnit":"m.s-1","parameterCategory":1,"la1":30.2991,"la2":30.254,"lo1":-89.0895,"lo2":-89.0444,"dy":0.0017,"dx":0.0017,"nx":28,"ny":28,"refTime":"2024-02-14T03:00:00:Z","depth":0,"parameterNumber":3,"parameterNumberName":"V-component_of_WINDS"},"data":[0,0,0,0,0,0,0,0,0,0,0,0,0,0,0,0,0,0,0,0,0,0,0,0,0,0,0,0,0,0,0,0,0,0,0,0,0,0,0,0,0,0,0,0,0,0,0,0,0,0,0,0,0,0,0,0,0,0,-2.5959,-2.5959,0,-2.6018,-2.6019,-2.602,-2.6007,-2.6005,-2.6004,-2.6003,-2.606,-2.6062,-2.6065,0,0,0,0,0,0,0,0,0,0,0,0,0,-2.583,-2.5833,-2.5959,-2.596,-2.596,-2.6018,-2.6019,-2.602,-2.6007,-2.6005,-2.6004,-2.6003,-2.6059,-2.6062,-2.6065,0,0,0,0,0,0,0,0,0,0,0,0,0,-2.5887,-2.5833,-2.5959,-2.5961,-2.5962,-2.6018,-2.6019,-2.602,-2.6007,-2.6005,-2.6004,-2.6002,-2.6058,-2.6062,-2.6066,-2.6122,0,0,-2.6077,-2.6079,0,0,0,0,0,0,0,0,-2.5884,-2.5892,-2.596,-2.5961,-2.5962,-2.6003,-2.5994,-2.6054,-2.6007,-2.599,-2.6003,-2.6001,-2.6042,-2.6047,-2.6062,-2.6125,-2.6127,-2.6078,-2.608,-2.6081,-2.6083,0,0,0,0,0,0,0,-2.588,-2.5889,-2.5982,-2.5961,-2.5962,-2.5958,-2.5964,-2.6006,-2.6024,-2.5991,-2.599,-2.5998,-2.6042,-2.6058,-2.6063,-2.6128,-2.6077,-2.6081,-2.6083,-2.6085,-2.624,-2.6242,0,0,0,0,0,0,-2.5876,-2.5886,-2.598,-2.5984,-2.5918,-2.5961,-2.5968,-2.5992,-2.6024,-2.6027,-2.5999,-2.5997,-2.6053,-2.6059,-2.6065,-2.6133,-2.6081,-2.6085,-2.6087,-2.6238,-2.624,-2.6242,0,0,0,0,0,0,-2.5873,-2.5884,-2.5978,-2.5935,-2.5947,-2.5965,-2.5992,-2.5994,-2.6009,-2.603,-2.6033,-2.6012,-2.6051,-2.606,-2.6108,-2.6134,-2.6087,-2.609,-2.6236,-2.6239,-2.6241,-2.6269,0,0,0,0,0,0,-2.587,-2.5884,-2.5906,-2.5936,-2.5949,-2.6021,-2.5993,-2.5996,-2.6017,-2.6014,-2.6043,-2.6046,-2.6051,-2.6103,-2.6112,-2.6139,-2.6093,-2.6233,-2.6237,-2.624,-2.6266,-2.6272,-2.6278,0,0,0,0,0,-2.5865,-2.5911,-2.5907,-2.5919,-2.5978,-2.6023,-2.603,-2.6036,-2.6019,-2.6041,-2.6054,-2.6045,-2.6131,-2.6108,-2.6118,-2.6147,-2.6232,-2.6236,-2.624,-2.6263,-2.6271,-2.6278,0,0,0,0,0,0,-2.5882,-2.5914,-2.5911,-2.5968,-2.5993,-2.6021,-2.6049,-2.6044,-2.6074,-2.607,-2.6075,-2.6081,-2.6131,-2.6144,-2.6118,-2.6203,-2.6178,-2.6185,-2.6192,-2.62,-2.6206,-2.6201,-2.6096,0,0,0,0,0,-2.5893,-2.5928,-2.5954,-2.6001,-2.6014,-2.603,-2.6049,-2.6052,-2.6077,-2.6087,-2.6104,-2.6128,-2.616,-2.6181,-2.6212,-2.6268,-2.6273,-2.6293,-2.6299,-2.6304,-2.6309,-2.6339,-2.6347,-2.6256,-2.6256,-2.6256,0,0,-2.5914,-2.5936,-2.5958,-2.6005,-2.6025,-2.606,-2.6038,-2.6076,-2.6102,-2.6093,-2.614,-2.6153,-2.618,-2.6232,-2.6256,-2.6245,-2.6336,-2.6309,-2.6313,-2.6315,-2.6344,-2.6352,-2.636,-2.6259,-2.6258,-2.6258,0,0,-2.5971,-2.5992,-2.6034,-2.6055,-2.6085,-2.6095,-2.6106,-2.6134,-2.6143,-2.6191,-2.6184,-2.6215,-2.627,-2.629,-2.6307,-2.6372,-2.6365,-2.6382,-2.6413,-2.6443,-2.645,-2.6456,-2.6478,-2.6487,-2.6388,-2.6388,-2.6388,0,-2.5994,-2.6048,-2.6056,-2.6095,-2.6115,-2.6111,-2.6152,-2.6171,-2.621,-2.6223,-2.621,-2.628,-2.6298,-2.6355,-2.6371,-2.6385,-2.6396,-2.6378,-2.6449,-2.6455,-2.6461,-2.6482,-2.6491,-2.6389,-2.6389,-2.6389,-2.6389,0,-2.6073,-2.6111,-2.6141,-2.618,-2.6204,-2.6244,-2.6257,-2.628,-2.6281,-2.6292,-2.634,-2.6362,-2.6397,-2.6411,-2.6411,-2.6467,-2.6459,-2.6448,-2.6423,-2.6471,-2.6491,-2.65,-2.6392,-2.6391,-2.6391,-2.639,0,0,-2.6141,-2.6185,-2.6196,-2.6214,-2.6248,-2.6276,-2.6316,-2.6352,-2.6371,-2.6398,-2.643,-2.6478,-2.6468,-2.6487,-2.649,-2.6516,-2.6565,-2.6501,-2.6501,-2.6511,-2.6627,-2.6635,-2.6644,-2.6561,-2.6563,-2.6564,-2.6625,0,-2.62,-2.6272,-2.628,-2.6343,-2.6378,-2.6374,-2.6408,-2.6432,-2.6444,-2.6474,-2.6486,-2.6519,-2.6504,-2.6515,-2.6541,-2.6554,-2.6588,-2.655,-2.659,-2.6591,-2.6581,-2.6655,-2.6663,-2.6719,-2.6633,-2.6634,-2.6635,0,-2.6279,-2.631,-2.6376,-2.6406,-2.6421,-2.6452,-2.6485,-2.6514,-2.6541,-2.6548,-2.657,-2.657,-2.6609,-2.6585,-2.6639,-2.6612,-2.6629,-2.6638,-2.664,-2.6643,-2.6615,-2.6658,-2.6737,-2.6745,-2.6647,-2.6646,-2.6646,0,-2.632,-2.6378,-2.6426,-2.6441,-2.6477,-2.6499,-2.6515,-2.654,-2.6561,-2.659,-2.6603,-2.6636,-2.6654,-2.6678,-2.6686,-2.6668,-2.674,-2.6716,-2.6745,-2.6744,-2.6758,-2.6757,-2.684,-2.6772,-2.6772,-2.6772,-2.6772,0,-2.6384,-2.6425,-2.6445,-2.6474,-2.6519,-2.6528,-2.6572,-2.6587,-2.661,-2.664,-2.6639,-2.6668,-2.6678,-2.6708,-2.6714,-2.6757,-2.6765,-2.677,-2.6771,-2.677,-2.6769,-2.6779,-2.6775,-2.6774,-2.6774,-2.6773,-2.6773,0,-2.6437,-2.6452,-2.6503,-2.6534,-2.6543,-2.6575,-2.66,-2.6628,-2.664,-2.6678,-2.6688,-2.6706,-2.6741,-2.6752,-2.6794,-2.6799,-2.6849,-2.6847,-2.684,-2.6839,-2.6867,-2.6864,-2.6958,-2.697,-2.6896,-2.6897,-2.6898,0,-2.6476,-2.6507,-2.6542,-2.6564,-2.6581,-2.6615,-2.6637,-2.6648,-2.667,-2.6704,-2.6727,-2.6762,-2.6791,-2.6847,-2.6862,-2.6895,-2.6892,-2.6924,-2.6897,-2.6894,-2.6891,-2.6889,-2.6891,-2.6928,-2.6928,-2.6929,-2.693,0,-2.6543,-2.655,-2.6582,-2.6618,-2.6645,-2.6672,-2.6699,-2.6716,-2.6731,-2.6756,-2.6793,-2.6815,-2.6859,-2.6894,-2.6927,-2.6941,-2.6937,-2.6938,-2.6946,-2.6944,-2.6938,-2.694,-2.6852,-2.6935,-2.6935,-2.6934,-2.6934,-2.6934,-2.659,-2.6617,-2.6646,-2.6682,-2.6704,-2.673,-2.6757,-2.6773,-2.6805,-2.6842,-2.6846,-2.6886,-2.6912,-2.6956,-2.6972,-2.7002,-2.6993,-2.7005,-2.7008,-2.701,-2.7012,-2.6935,-2.7008,-2.7008,-2.7008,-2.7008,-2.7008,0,-2.6656,-2.6675,-2.6708,-2.6747,-2.6775,-2.6772,-2.6801,-2.6825,-2.686,-2.6885,-2.6914,-2.6956,-2.699,-2.7009,-2.7043,-2.7063,-2.7062,-2.7071,-2.7069,-2.7072,-2.7019,-2.7008,-2.7071,-2.7071,-2.7071,-2.7071,-2.7071,-2.7071,-2.6693,-2.674,-2.675,-2.6807,-2.6825,-2.6865,-2.6882,-2.6905,-2.6926,-2.6973,-2.7002,-2.7015,-2.7038,-2.7073,-2.7103,-2.7108,-2.712,-2.713,-2.7133,-2.7082,-2.7076,-2.7069,-2.7059,-2.7133,-2.7133,-2.7184,-2.7184,-2.7184]}]]